CAPE
0 0 0 0 0 0 0 0 0 0 0 0 0 0 0 0 0 0 44 773 1202 1724 2017 2067 2232 1988 1828 1639 1538 1550 1540 1621 1623 1570 1467 1443 1365 1296 1381 1478 1569 1644 1179 963 775 556 314 156 155
0 0 0 0 0 0 0 0 0 0 0 0 0 0 0 0 0 250 286 965 1458 1641 1895 1956 2213 1968 1884 1656 1498 1416 1510 1540 1512 1479 1439 1388 1311 1299 1430 1525 1735 1571 1034 894 674 388 179 145 169
0 0 0 0 0 0 0 0 0 0 0 0 0 0 4 678 1043 443 295 1334 1646 1568 1533 1854 2228 1982 1851 1607 1437 1344 1363 1369 1414 1439 1410 1380 1324 1306 1422 1675 1727 1414 1007 934 788 385 177 156 201
0 0 0 0 0 0 0 0 0 0 0 0 0 0 0 1044 1190 624 1053 1470 1524 1587 1572 2264 2251 1943 1777 1636 1465 1356 1324 1325 1348 1434 1395 1358 1337 1349 1525 1697 1661 1558 1122 970 801 353 191 122 100
0 0 0 0 0 0 0 0 0 0 0 0 0 0 0 1122 1497 1082 1070 1517 1516 1603 1667 2125 2208 1957 1874 1655 1394 1395 1295 1308 1381 1472 1444 1387 1371 1506 1711 1826 1758 1572 1154 1015 450 250 226 246 108
0 0 0 0 0 0 0 0 0 0 0 0 0 0 0 227 1075 1225 1021 1107 1473 1502 1843 1856 2098 2004 1803 1673 1502 1359 1281 1329 1483 1504 1413 1403 1347 1445 1616 1700 1747 1576 1302 547 266 191 111 175 138
0 0 0 0 0 0 0 0 0 0 0 0 0 0 0 9 1210 835 526 846 1296 1581 1639 1582 1670 1766 1826 1669 1452 1295 1372 1371 1442 1356 1298 1356 1462 1546 1620 1636 1596 1338 873 654 409 197 127 122 100
0 0 0 0 0 0 0 0 0 0 0 0 0 0 0 453 898 668 942 789 1209 1527 1401 1260 1274 1417 1453 1433 1513 1360 1434 1496 1410 1353 1365 1414 1516 1508 1471 1147 1160 964 783 618 433 225 135 42 0
0 0 0 0 0 0 0 0 0 0 0 0 0 0 0 0 1071 1064 1225 1167 1215 1200 1271 1160 980 1109 950 1031 1218 1431 1321 1604 1503 1394 1431 1253 976 1116 1090 816 1075 942 744 570 356 210 53 0 0
0 0 0 0 0 0 0 0 0 0 0 0 0 0 0 0 954 1288 1220 1193 1278 1238 1272 1203 1064 955 765 860 879 947 782 1102 1144 1072 1033 673 653 583 787 788 1078 946 664 414 270 93 1 0 0
0 0 0 0 0 0 0 0 0 0 0 0 0 0 0 0 0 230 1400 1383 1215 1244 1151 1105 985 916 796 739 779 748 741 656 769 805 735 629 795 711 726 481 828 421 536 38 128 11 0 0 0
0 0 0 0 0 0 0 0 0 0 0 0 0 0 0 0 0 0 0 376 1386 1196 1226 1082 1007 947 724 693 741 655 552 428 566 690 735 667 275 484 422 366 310 120 69 0 0 0 0 0 0
0 0 0 0 0 0 0 0 0 0 0 0 0 0 0 0 0 0 0 0 2 1240 1265 1091 1082 880 833 690 678 550 357 330 221 235 262 251 120 198 224 245 171 47 0 0 0 0 0 0 0
0 0 0 0 0 0 0 0 0 0 0 0 0 0 0 0 0 0 0 0 0 11 1269 1133 1084 996 846 850 753 689 307 253 211 171 207 199 185 267 169 130 112 22 0 0 0 0 0 0 0
0 0 0 0 0 0 0 0 0 0 0 0 0 0 0 0 0 0 0 0 0 0 791 1081 1102 1038 946 938 581 585 349 301 206 236 226 147 147 125 157 83 45 45 0 0 0 0 0 0 0
0 0 0 0 0 0 0 0 0 0 0 0 0 0 0 0 0 0 0 0 0 0 414 928 1132 1076 961 1020 715 727 578 450 290 194 94 95 51 60 75 54 53 9 0 0 0 0 0 3 32
0 0 0 0 0 0 0 0 0 0 0 0 0 0 0 0 0 0 0 0 0 0 0 558 768 951 959 904 823 708 511 305 116 33 20 17 28 1 33 51 27 1 0 0 0 2 7 82 0
0 0 0 0 0 0 0 0 0 0 0 0 0 0 0 0 0 0 0 0 0 0 0 0 548 807 786 813 719 531 257 169 21 21 9 0 3 9 0 20 42 15 0 4 20 102 29 17 0
0 0 0 0 0 0 0 0 0 0 0 0 0 0 0 0 0 0 0 0 0 0 0 0 264 579 495 318 430 437 455 162 5 8 31 0 0 32 35 25 17 49 173 163 145 131 19 0 0
0 0 0 0 0 0 0 0 0 0 0 0 0 0 0 0 0 0 0 0 0 0 0 2 380 315 414 326 427 392 478 162 46 0 13 2 0 1 111 81 36 80 238 247 207 48 0 0 0
0 0 0 0 0 0 0 0 0 0 0 0 0 0 0 0 0 0 0 0 0 0 0 41 544 398 449 444 363 158 99 47 13 4 0 26 0 0 40 191 99 147 237 285 183 32 0 0 0
0 0 0 0 0 0 0 0 0 0 0 0 0 0 0 0 0 0 0 0 0 0 0 0 809 679 522 467 408 335 237 128 44 32 95 68 10 0 12 103 186 250 274 244 195 17 0 0 0
0 0 0 0 0 0 0 0 0 0 0 0 0 0 0 0 0 0 0 0 0 0 0 0 1014 1127 812 638 567 499 397 241 141 30 165 145 71 0 7 98 264 321 218 188 65 0 0 0 0
0 0 0 0 0 0 0 0 0 0 0 0 0 0 0 0 0 0 0 0 0 0 0 0 826 1681 1237 994 899 707 600 466 322 275 317 269 182 27 3 179 346 228 70 48 7 0 0 0 0
0 0 0 0 0 0 0 0 0 0 0 0 0 0 0 0 0 0 0 0 0 0 0 0 0 1540 1781 1354 1237 1007 786 742 564 404 496 531 278 151 254 355 148 3 1 0 0 0 0 0 0
0 0 0 0 0 0 0 0 0 0 0 0 0 0 0 0 0 0 0 0 0 0 0 0 0 0 1632 1827 1507 1359 1000 868 752 685 804 530 396 354 487 280 79 1 0 0 0 0 0 0 0
0 0 0 0 0 0 0 0 0 0 0 0 0 0 0 0 0 0 0 0 0 0 0 0 0 0 43 2063 1828 1588 1228 942 882 959 897 668 514 534 456 108 0 0 0 0 0 0 0 0 0
0 0 0 0 0 0 0 0 0 0 0 0 0 0 0 0 0 0 0 0 0 0 0 0 0 0 0 324 1828 1750 1590 1172 870 976 929 753 701 760 151 3 1 0 0 0 0 0 0 0 0
0 0 0 5 10 0 0 0 0 0 0 0 0 0 0 0 0 0 0 0 0 0 0 0 0 0 0 3 1117 1715 1703 1478 987 1100 1018 909 965 483 140 0 1 0 0 0 0 0 0 0 0
0 0 0 1 1 7 2 0 0 0 0 0 0 0 0 0 0 0 0 0 0 0 0 0 0 0 0 66 680 1725 1772 1812 1454 1386 1129 1073 901 293 116 0 1 1 0 0 0 0 0 0 0
CIN
-0 -0 -0 -0 -0 -0 -0 -0 -0 -0 -0 -0 -0 -0 -0 -0 -0 -0 -975 -738 -734 -597 -511 -438 -310 -304 -267 -287 -296 -261 -236 -201 -161 -156 -158 -137 -134 -120 -79 -43 -17 -5 -55 -83 -105 -137 -218 -303 -263
-0 -0 -0 -0 -0 -0 -0 -0 -0 -0 -0 -0 -0 -0 -0 -0 -0 -467 -768 -742 -664 -622 -546 -498 -353 -338 -274 -277 -303 -295 -246 -228 -201 -194 -177 -154 -152 -132 -81 -50 -9 -17 -89 -101 -138 -200 -324 -325 -251
-0 -0 -0 -0 -0 -0 -0 -0 -0 -0 -0 -0 -0 -0 -90 -125 -217 -447 -771 -706 -619 -602 -614 -534 -393 -365 -328 -323 -313 -306 -273 -248 -213 -191 -184 -162 -157 -140 -90 -43 -22 -50 -107 -101 -115 -211 -347 -328 -236
-0 -0 -0 -0 -0 -0 -0 -0 -0 -0 -0 -0 -0 -0 -0 -289 -376 -482 -692 -684 -663 -606 -579 -415 -386 -372 -321 -326 -314 -320 -285 -255 -228 -186 -181 -174 -165 -147 -87 -43 -38 -36 -101 -110 -133 -257 -351 -395 -371
-0 -0 -0 -0 -0 -0 -0 -0 -0 -0 -0 -0 -0 -0 -0 -363 -382 -521 -580 -541 -625 -612 -563 -441 -380 -376 -343 -337 -351 -310 -314 -276 -232 -196 -176 -169 -160 -118 -77 -41 -38 -48 -95 -114 -238 -323 -326 -295 -367
-0 -0 -0 -0 -0 -0 -0 -0 -0 -0 -0 -0 -0 -0 -0 -253 -390 -475 -525 -527 -487 -485 -411 -403 -349 -340 -348 -341 -332 -324 -305 -279 -219 -191 -178 -160 -156 -127 -82 -69 -47 -52 -81 -229 -323 -364 -417 -336 -329
-0 -0 -0 -0 -0 -0 -0 -0 -0 -0 -0 -0 -0 -0 -0 -409 -370 -467 -582 -527 -424 -373 -358 -374 -334 -327 -300 -303 -318 -324 -255 -226 -199 -200 -195 -165 -128 -103 -90 -79 -79 -101 -176 -223 -271 -354 -384 -364 -348
-0 -0 -0 -0 -0 -0 -0 -0 -0 -0 -0 -0 -0 -0 -0 -298 -369 -451 -379 -464 -349 -303 -302 -302 -311 -300 -351 -351 -300 -314 -247 -195 -185 -173 -161 -145 -124 -115 -111 -165 -157 -185 -217 -248 -280 -345 -394 -472 -0
-0 -0 -0 -0 -0 -0 -0 -0 -0 -0 -0 -0 -0 -0 -0 -0 -276 -332 -294 -287 -289 -281 -266 -276 -308 -253 -330 -403 -377 -300 -309 -202 -178 -159 -136 -163 -226 -192 -189 -243 -172 -190 -235 -271 -310 -345 -456 -0 -0
-0 -0 -0 -0 -0 -0 -0 -0 -0 -0 -0 -0 -0 -0 -0 -0 -169 -196 -225 -234 -232 -254 -240 -250 -275 -297 -308 -317 -363 -388 -451 -348 -298 -264 -255 -330 -322 -335 -258 -242 -164 -185 -251 -313 -338 -403 -271 -0 -0
-0 -0 -0 -0 -0 -0 -0 -0 -0 -0 -0 -0 -0 -0 -0 -0 -0 -123 -120 -175 -226 -234 -250 -247 -271 -288 -369 -336 -329 -394 -419 -461 -416 -364 -348 -353 -278 -294 -272 -329 -217 -333 -281 -515 -409 -60 -0 -0 -0
-0 -0 -0 -0 -0 -0 -0 -0 -0 -0 -0 -0 -0 -0 -0 -0 -0 -0 -0 -202 -151 -198 -247 -257 -254 -236 -250 -359 -375 -381 -460 -532 -460 -391 -346 -353 -474 -377 -382 -375 -392 -482 -500 -0 -0 -0 -0 -0 -0
-0 -0 -0 -0 -0 -0 -0 -0 -0 -0 -0 -0 -0 -0 -0 -0 -0 -0 -0 -0 -44 -136 -196 -236 -235 -245 -243 -298 -272 -356 -450 -514 -619 -574 -511 -504 -574 -517 -501 -478 -499 -582 -0 -0 -0 -0 -0 -0 -0
-0 -0 -0 -0 -0 -0 -0 -0 -0 -0 -0 -0 -0 -0 -0 -0 -0 -0 -0 -0 -0 -53 -171 -204 -207 -241 -238 -215 -270 -300 -429 -474 -525 -586 -598 -598 -602 -540 -585 -608 -574 -661 -0 -0 -0 -0 -0 -0 -0
-0 -0 -0 -0 -0 -0 -0 -0 -0 -0 -0 -0 -0 -0 -0 -0 -0 -0 -0 -0 -0 -0 -236 -205 -206 -231 -216 -153 -266 -273 -362 -364 -400 -438 -506 -567 -603 -637 -612 -654 -683 -633 -0 -0 -0 -0 -0 -0 -0
-0 -0 -0 -0 -0 -0 -0 -0 -0 -0 -0 -0 -0 -0 -0 -0 -0 -0 -0 -0 -0 -0 -264 -242 -189 -178 -187 -174 -245 -211 -243 -295 -325 -377 -462 -541 -646 -654 -622 -671 -698 -757 -0 -0 -0 -0 -0 -161 -347
-0 -0 -0 -0 -0 -0 -0 -0 -0 -0 -0 -0 -0 -0 -0 -0 -0 -0 -0 -0 -0 -0 -0 -292 -235 -186 -190 -189 -196 -209 -281 -340 -393 -470 -558 -600 -610 -386 -632 -619 -672 -150 -0 -0 -0 -223 -238 -281 -0
-0 -0 -0 -0 -0 -0 -0 -0 -0 -0 -0 -0 -0 -0 -0 -0 -0 -0 -0 -0 -0 -0 -0 -0 -310 -256 -228 -171 -178 -249 -344 -409 -602 -583 -616 -0 -389 -645 -0 -631 -602 -695 -0 -518 -500 -387 -443 -82 -0
-0 -0 -0 -0 -0 -0 -0 -0 -0 -0 -0 -0 -0 -0 -0 -0 -0 -0 -0 -0 -0 -0 -0 -0 -381 -298 -271 -292 -284 -288 -320 -443 -356 -700 -650 -0 -0 -531 -631 -649 -636 -628 -507 -475 -417 -363 -453 -0 -0
-0 -0 -0 -0 -0 -0 -0 -0 -0 -0 -0 -0 -0 -0 -0 -0 -0 -0 -0 -0 -0 -0 -0 -134 -282 -338 -295 -324 -302 -294 -345 -462 -571 -0 -613 -601 -0 -349 -430 -515 -632 -590 -399 -372 -349 -445 -144 -0 -0
-0 -0 -0 -0 -0 -0 -0 -0 -0 -0 -0 -0 -0 -0 -0 -0 -0 -0 -0 -0 -0 -0 -0 -389 -223 -292 -266 -297 -279 -366 -381 -406 -452 -356 -0 -632 -0 -0 -465 -356 -481 -475 -382 -326 -342 -494 -0 -0 -0
-0 -0 -0 -0 -0 -0 -0 -0 -0 -0 -0 -0 -0 -0 -0 -0 -0 -0 -0 -0 -0 -0 -0 -0 -205 -196 -226 -223 -249 -253 -327 -423 -469 -545 -573 -590 -626 -0 -485 -350 -327 -316 -329 -338 -344 -532 -0 -0 -0
-0 -0 -0 -0 -0 -0 -0 -0 -0 -0 -0 -0 -0 -0 -0 -0 -0 -0 -0 -0 -0 -0 -0 -0 -188 -171 -153 -166 -143 -168 -213 -300 -339 -394 -394 -410 -483 -10 -454 -321 -244 -231 -281 -333 -431 -0 -0 -0 -0
-0 -0 -0 -0 -0 -0 -0 -0 -0 -0 -0 -0 -0 -0 -0 -0 -0 -0 -0 -0 -0 -0 -0 -0 -254 -75 -119 -160 -124 -77 -118 -178 -179 -213 -216 -277 -356 -506 -111 -242 -197 -248 -352 -458 -452 -0 -0 -0 -0
-0 -0 -0 -0 -0 -0 -0 -0 -0 -0 -0 -0 -0 -0 -0 -0 -0 -0 -0 -0 -0 -0 -0 -0 -0 -95 -54 -82 -107 -117 -98 -94 -173 -213 -164 -163 -245 -307 -345 -213 -271 -63 -181 -0 -0 -0 -0 -0 -0
-0 -0 -0 -0 -0 -0 -0 -0 -0 -0 -0 -0 -0 -0 -0 -0 -0 -0 -0 -0 -0 -0 -0 -0 -0 -0 -78 -31 -74 -93 -137 -99 -112 -135 -112 -178 -195 -234 -179 -173 -256 -121 -0 -0 -0 -0 -0 -0 -0
-0 -0 -0 -0 -0 -0 -0 -0 -0 -0 -0 -0 -0 -0 -0 -0 -0 -0 -0 -0 -0 -0 -0 -0 -0 -0 -434 -45 -41 -61 -81 -117 -115 -101 -110 -135 -168 -127 -112 -229 -0 -0 -0 -0 -0 -0 -0 -0 -0
-0 -0 -0 -0 -0 -0 -0 -0 -0 -0 -0 -0 -0 -0 -0 -0 -0 -0 -0 -0 -0 -0 -0 -0 -0 -0 -0 -475 -77 -63 -64 -110 -150 -109 -100 -145 -107 -70 -217 -283 -0 -0 -0 -0 -0 -0 -0 -0 -0
-0 -0 -0 -0 -0 -1 -0 -0 -0 -0 -0 -0 -0 -0 -0 -0 -0 -0 -0 -0 -0 -0 -0 -0 -0 -0 -0 -47 -230 -109 -94 -71 -129 -77 -96 -122 -70 -92 -296 -0 -0 -0 -0 -0 -0 -0 -0 -0 -0
-0 -0 -0 -1 -0 -0 -0 -0 -0 -0 -0 -0 -0 -0 -0 -0 -0 -0 -0 -0 -0 -0 -0 -0 -0 -0 -0 -646 -286 -89 -118 -95 -71 -46 -55 -64 -75 -183 -325 -0 -0 -0 -0 -0 -0 -0 -0 -0 -0
Wind_Speed
7 6 1 4 4 6 2 4 2 4 5 3 4 5 6 3 5 6 5 12 14 17 17 20 21 20 19 19 19 19 19 19 19 19 19 19 19 18 17 16 15 14 14 13 12 11 11 12 11
4 3 4 3 6 2 4 3 5 2 5 9 4 2 1 8 4 6 2 7 16 16 16 18 22 20 19 19 19 19 19 19 19 19 19 19 18 18 17 16 15 14 14 13 12 12 12 12 11
3 3 4 5 3 6 5 4 4 5 8 6 5 3 2 4 2 3 2 10 13 12 12 16 22 21 20 20 19 19 19 19 18 18 18 18 18 17 16 15 14 14 14 13 12 11 12 11 11
3 5 5 5 7 5 4 3 4 3 7 8 6 5 6 14 13 7 9 14 16 13 10 18 20 20 19 19 19 19 19 19 18 18 18 17 17 16 15 14 13 13 13 12 11 11 11 11 10
5 4 5 2 4 5 3 4 5 4 4 6 8 11 6 7 6 9 5 6 11 12 11 16 19 20 20 19 20 19 20 19 19 18 17 17 16 15 15 14 12 12 12 11 10 10 10 9 9
5 4 4 3 4 5 5 3 1 3 3 9 9 16 3 4 5 6 6 6 6 5 6 10 17 18 18 19 18 19 19 19 18 17 16 15 14 14 13 13 12 11 11 10 9 9 8 8 8
7 5 4 4 3 5 2 5 4 3 3 4 6 7 7 15 8 7 8 7 6 5 4 8 9 12 17 16 16 17 17 17 16 15 15 14 13 12 12 11 11 10 9 9 8 8 8 7 7
6 5 4 3 3 6 2 5 2 5 5 7 5 5 9 4 7 8 8 8 6 6 4 6 4 4 9 10 16 17 17 16 15 13 13 13 13 12 11 10 10 10 9 9 8 7 6 7 6
4 5 1 2 4 4 5 7 4 3 4 6 4 4 6 5 4 6 5 4 5 5 4 3 6 1 2 8 12 14 20 18 16 14 12 9 4 6 9 8 9 9 9 8 7 6 5 5 5
6 4 8 4 3 3 8 3 6 2 4 4 6 7 6 4 3 5 4 5 4 5 6 5 5 5 5 6 8 9 10 9 9 8 9 4 5 4 6 7 9 9 9 8 7 5 5 4 2
1 4 3 3 4 4 4 8 2 2 2 4 5 9 8 5 5 5 5 6 9 8 6 8 7 6 9 6 5 6 5 6 6 8 7 6 6 4 3 2 2 2 6 2 3 2 2 3 2
2 4 2 4 4 5 4 6 7 6 7 7 7 9 5 8 8 8 6 7 7 12 15 14 12 9 6 5 8 7 7 7 6 7 9 7 7 6 6 3 3 3 2 3 3 2 3 2 2
3 2 4 7 8 7 5 8 9 6 11 8 7 8 9 9 10 9 9 7 7 9 12 15 14 12 10 7 6 8 8 8 10 10 11 10 9 9 6 5 4 3 2 3 3 3 2 2 3
2 3 8 6 9 5 6 7 2 7 9 9 4 7 9 7 10 8 9 9 8 8 11 11 15 15 13 8 9 6 5 7 7 9 11 16 11 8 7 6 5 4 3 3 2 3 2 1 2
4 5 7 3 1 6 5 4 5 9 7 8 9 6 7 7 7 10 9 11 10 8 8 12 16 17 16 13 8 5 5 4 6 6 9 13 11 10 9 6 5 5 4 3 3 2 1 1 2
5 5 4 6 6 6 2 7 4 13 5 11 10 8 7 8 7 7 10 11 12 9 8 11 13 16 17 15 11 9 7 6 6 5 7 10 9 9 8 7 6 4 4 4 3 2 2 2 1
6 6 6 8 3 5 3 15 8 10 9 10 10 9 9 9 9 9 7 10 12 13 9 10 12 15 18 16 12 12 12 8 7 5 6 9 9 8 7 5 5 6 5 4 3 2 3 2 2
7 7 7 10 6 7 10 20 13 11 8 10 10 12 12 12 14 9 11 6 10 11 10 7 9 14 16 11 10 9 9 9 8 7 7 7 7 8 7 5 5 6 4 4 3 3 2 2 3
4 5 11 11 10 6 16 18 21 10 8 9 13 12 14 17 17 8 8 9 6 10 9 10 8 10 11 10 12 11 13 11 8 7 9 9 8 9 9 6 5 5 6 6 6 2 3 2 2
6 8 10 14 8 4 11 25 25 11 9 13 13 12 12 14 14 11 9 7 8 9 10 7 9 10 12 11 12 9 12 9 10 8 7 11 12 11 10 9 7 8 5 5 7 6 3 2 2
4 8 13 17 13 6 6 21 18 4 10 8 8 9 11 13 16 14 9 8 4 9 10 8 11 13 14 14 7 2 6 4 6 8 10 12 13 13 12 10 7 8 7 6 8 7 6 4 2
7 6 6 12 7 5 4 14 32 8 6 4 8 8 10 14 13 12 10 8 6 10 9 9 11 12 13 12 12 13 13 12 11 10 9 9 11 12 11 9 9 8 6 7 8 6 3 4 5
7 6 8 7 15 7 6 7 5 10 11 12 8 8 10 9 9 9 6 6 4 6 8 8 9 12 12 12 14 13 13 12 7 9 13 11 11 15 15 13 11 9 6 7 10 7 5 3 4
5 6 13 4 1 8 14 13 4 5 7 5 5 6 7 8 6 7 5 1 3 6 6 5 6 11 12 15 16 16 17 14 7 9 10 10 9 9 10 11 10 8 7 9 8 6 6 4 4
9 6 6 6 2 7 5 6 17 11 8 8 12 14 7 6 5 7 8 3 2 5 5 5 6 9 14 14 17 18 18 15 15 12 10 10 9 7 12 15 12 9 8 8 7 7 7 4 5
6 5 5 6 4 7 10 9 8 8 10 12 8 8 5 3 6 7 8 7 1 3 5 6 7 7 8 15 17 17 19 12 11 13 11 9 9 10 13 11 11 13 12 10 9 8 8 7 6
1 4 5 5 9 8 7 7 9 17 17 8 6 7 8 8 8 8 8 8 7 3 6 7 8 8 9 13 14 15 14 15 15 14 10 9 8 8 12 13 11 11 14 13 12 9 10 9 8
7 3 4 2 6 8 5 6 9 8 5 5 7 6 6 6 8 7 7 8 8 7 5 6 9 10 9 13 14 13 16 17 15 10 12 13 11 13 13 13 13 12 13 14 11 10 10 11 7
3 3 3 3 4 5 9 6 7 6 4 3 5 6 7 8 9 12 8 7 8 10 7 6 7 9 10 10 15 15 14 16 14 13 12 14 14 14 16 16 15 15 13 14 15 12 12 13 9
10 10 10 6 6 6 6 18 13 11 2 9 12 11 11 7 10 12 10 11 10 12 12 11 9 7 9 10 13 15 14 15 16 14 13 15 16 15 15 16 16 15 15 13 18 15 13 13 13
Wind_Direction
318 312 86 42 54 66 289 262 256 311 20 219 247 186 208 279 176 226 315 170 135 150 151 149 151 146 144 142 140 138 137 133 134 134 134 137 138 140 143 142 141 140 138 136 133 130 125 122 128
316 337 45 85 101 106 272 259 253 308 277 289 242 240 181 276 257 291 54 168 150 151 152 147 149 146 146 144 142 141 139 137 138 139 139 141 142 145 146 145 143 141 141 139 137 133 127 127 132
309 31 79 98 125 159 195 209 47 318 308 335 343 268 226 240 244 236 180 143 136 147 152 152 150 149 149 147 146 142 141 140 141 142 142 144 146 148 149 147 146 146 145 143 137 131 129 132 136
39 13 35 109 207 240 181 346 357 346 331 346 321 325 323 46 349 330 136 146 147 151 153 154 148 147 148 147 147 144 143 143 145 145 147 150 151 150 150 149 149 153 150 146 139 138 134 136 135
36 58 61 354 261 275 281 270 329 41 348 315 338 320 298 356 31 21 74 134 150 149 154 152 149 150 150 151 149 148 147 147 149 151 152 154 153 152 149 153 155 155 153 147 143 143 137 134 132
48 88 80 231 281 277 284 283 15 63 9 315 355 325 296 275 354 74 56 73 84 112 138 149 153 151 151 151 152 151 150 150 152 153 155 157 155 153 153 156 156 156 153 151 151 147 141 133 124
110 90 182 168 258 310 263 347 48 348 7 328 302 309 292 360 39 49 75 62 77 87 126 148 161 156 149 150 153 151 151 152 152 153 157 157 156 155 155 158 156 154 151 154 159 156 148 130 122
103 89 134 210 196 270 297 12 329 44 296 325 356 337 320 327 58 69 51 70 61 117 91 165 156 164 151 150 155 153 154 153 153 158 160 159 159 158 160 158 160 158 161 166 168 171 152 135 127
126 67 160 230 182 258 311 24 326 289 278 332 265 281 306 300 92 87 75 60 91 147 127 164 177 200 204 155 158 162 159 160 158 164 164 155 149 158 167 172 173 170 174 177 180 178 155 140 137
82 101 207 221 278 287 319 325 291 309 305 240 295 306 313 328 278 148 162 145 129 149 173 161 169 176 183 173 174 161 167 161 163 162 164 150 153 160 168 184 185 183 187 186 186 178 169 138 137
100 174 209 300 301 5 278 315 282 260 314 234 268 291 289 282 309 252 217 189 177 170 176 189 184 193 173 175 179 176 169 168 163 166 158 160 169 182 168 175 183 180 196 198 192 175 167 165 166
18 268 102 290 316 336 276 302 304 226 227 242 261 264 277 274 292 280 253 239 193 190 192 187 187 180 229 185 174 183 177 169 170 173 173 175 188 194 192 190 184 183 190 194 203 192 191 173 195
146 265 295 291 285 250 255 238 240 257 266 266 279 283 275 279 286 284 268 263 218 217 207 192 179 181 187 186 200 184 192 181 174 171 185 192 194 196 186 188 182 185 178 203 208 211 201 159 212
271 279 285 282 266 265 248 272 16 262 262 305 289 269 278 266 270 287 293 274 259 225 214 197 186 183 177 193 181 185 205 185 187 182 185 189 192 188 186 183 189 188 184 210 209 209 197 190 246
270 306 319 265 246 276 170 315 246 262 299 286 304 290 262 260 254 247 256 262 251 247 214 187 190 182 181 186 175 178 166 189 194 205 195 199 190 185 181 186 187 195 180 196 206 214 139 275 305
355 60 19 302 327 273 179 280 265 284 284 297 288 282 280 284 266 252 256 261 261 250 194 198 192 191 191 188 178 165 171 181 195 206 210 206 204 190 185 183 190 180 171 182 204 176 167 236 219
6 283 286 307 225 274 192 293 275 276 283 276 277 280 274 279 276 282 263 259 272 258 235 193 195 193 194 192 183 181 166 179 191 190 198 200 201 190 190 192 187 165 177 189 182 174 163 166 125
290 299 277 280 285 288 287 282 275 265 260 258 269 278 280 274 265 250 275 233 262 270 271 244 200 194 189 181 180 181 177 182 180 188 189 181 196 189 188 193 179 170 173 178 170 168 132 142 126
253 264 269 278 283 278 290 279 282 268 247 245 251 260 270 274 279 248 250 268 229 279 279 257 182 192 170 172 177 184 193 187 187 190 174 183 194 198 193 196 176 172 182 189 184 143 138 106 134
248 271 282 286 265 242 283 287 282 270 236 236 253 259 257 271 279 271 259 260 246 232 255 252 216 185 184 184 192 194 190 193 187 174 181 190 195 201 199 195 185 177 180 164 169 162 139 116 143
278 270 293 287 306 240 263 279 292 229 247 248 251 254 272 262 271 271 262 263 257 246 240 226 217 196 194 188 182 115 147 119 174 178 198 202 196 205 202 197 184 180 177 176 175 166 152 139 148
286 254 293 294 329 296 92 289 291 271 275 259 274 268 267 276 277 268 269 271 241 243 241 226 202 206 200 181 177 184 190 184 200 200 202 195 191 195 195 194 186 184 185 170 174 172 153 144 160
242 317 285 286 279 291 197 247 92 329 291 275 251 259 269 271 274 275 294 285 313 308 253 256 218 195 192 188 193 188 196 204 186 194 187 184 199 205 195 189 184 181 181 174 162 158 165 180 148
339 340 306 288 205 255 248 216 338 223 224 279 282 247 244 284 306 315 309 207 298 320 324 301 248 218 200 191 194 197 201 197 185 188 199 193 194 189 191 183 183 169 163 167 162 148 149 148 122
31 32 319 335 336 242 341 298 258 277 281 233 255 274 273 245 294 319 321 86 257 334 307 307 278 233 213 209 201 198 205 200 195 188 201 180 180 190 185 174 160 164 154 147 138 130 118 139 124
295 170 171 279 260 268 331 260 251 239 261 252 263 260 276 331 333 310 302 306 200 238 287 279 282 283 238 218 217 212 206 204 203 192 192 189 196 184 173 172 172 155 150 129 129 119 110 113 103
268 220 211 265 258 270 232 270 313 275 273 341 26 36 2 338 322 301 306 308 307 233 240 262 281 271 261 230 222 216 211 208 204 200 180 184 172 166 173 158 157 155 137 133 128 120 113 104 97
184 209 359 332 287 273 253 252 252 347 1 356 358 355 332 306 306 304 303 308 308 295 269 246 254 259 253 250 227 216 207 204 209 186 178 168 168 162 160 154 147 142 127 115 110 109 103 102 89
185 252 224 253 235 268 299 267 196 202 221 329 287 280 294 298 304 306 292 295 302 301 286 253 230 252 265 238 241 218 204 203 194 195 178 169 158 166 160 152 145 145 132 128 119 111 113 108 103
239 253 233 243 244 245 271 279 267 283 258 346 303 318 310 294 300 293 299 306 309 303 298 292 292 275 256 257 245 232 204 193 193 186 181 166 162 166 158 149 141 139 131 133 122 121 116 117 108